TimeEDT,TemperatureF,Dew PointF,Humidity,Sea Level PressureIn,VisibilityMPH,Wind Direction,Wind SpeedMPH,Gust SpeedMPH,PrecipitationIn,Events,Conditions,WindDirDegrees,DateUTC
12:54 AM,70.0,62.1,76,29.99,10.0,SSW,11.5,-,N/A,,Clear,200,2013-05-11 04:54:00
1:54 AM,70.0,63.0,78,29.99,10.0,SSW,13.8,-,N/A,,Clear,200,2013-05-11 05:54:00
2:54 AM,70.0,63.0,78,29.96,10.0,South,13.8,19.6,N/A,,Clear,190,2013-05-11 06:54:00
3:54 AM,70.0,63.0,78,29.96,10.0,SSW,12.7,-,N/A,,Clear,200,2013-05-11 07:54:00
4:54 AM,70.0,63.0,78,29.96,10.0,SSW,13.8,-,N/A,,Clear,200,2013-05-11 08:54:00
5:54 AM,69.1,64.9,87,29.96,10.0,SSW,9.2,-,N/A,,Clear,200,2013-05-11 09:54:00
6:54 AM,70.0,66.0,87,29.96,10.0,SSW,12.7,-,N/A,,Clear,200,2013-05-11 10:54:00
7:54 AM,72.0,66.9,84,29.96,10.0,SSW,16.1,21.9,N/A,,Clear,210,2013-05-11 11:54:00
8:54 AM,73.9,66.9,79,29.95,10.0,SSW,17.3,25.3,N/A,,Partly Cloudy,210,2013-05-11 12:54:00
9:54 AM,77.0,66.0,69,29.93,10.0,SSW,18.4,-,N/A,,Partly Cloudy,200,2013-05-11 13:54:00
10:54 AM,79.0,66.9,66,29.91,10.0,SSW,20.7,26.5,N/A,,Clear,200,2013-05-11 14:54:00
11:54 AM,82.0,66.0,58,29.90,10.0,SSW,17.3,27.6,N/A,,Clear,210,2013-05-11 15:54:00
12:54 PM,82.9,64.9,54,29.88,10.0,SSW,18.4,26.5,N/A,,Clear,210,2013-05-11 16:54:00
1:54 PM,79.0,66.0,64,29.86,10.0,South,11.5,20.7,0.00,,Partly Cloudy,190,2013-05-11 17:54:00
2:54 PM,79.0,66.0,64,29.85,10.0,South,21.9,26.5,0.00,,Mostly Cloudy,190,2013-05-11 18:54:00
3:54 PM,77.0,66.0,69,29.82,10.0,South,13.8,21.9,N/A,,Clear,180,2013-05-11 19:54:00
5:54 PM,79.0,68.0,69,29.81,10.0,South,13.8,-,N/A,,Clear,190,2013-05-11 21:54:00
6:54 PM,77.0,66.9,71,29.80,10.0,South,11.5,-,N/A,,Clear,190,2013-05-11 22:54:00
7:54 PM,75.0,66.9,76,29.80,10.0,South,10.4,19.6,N/A,,Clear,180,2013-05-11 23:54:00
8:54 PM,73.0,62.1,68,29.81,10.0,SSW,12.7,-,N/A,,Clear,200,2013-05-12 00:54:00
9:54 PM,71.1,62.1,73,29.83,10.0,SW,6.9,-,N/A,,Scattered Clouds,220,2013-05-12 01:54:00
10:54 PM,72.0,62.1,71,29.82,10.0,South,8.1,-,N/A,,Clear,190,2013-05-12 02:54:00
11:54 PM,71.1,63.0,75,29.80,10.0,SSW,13.8,-,N/A,,Mostly Cloudy,210,2013-05-12 03:54:00